,,Stat6,,Stat2,,Stat8,,Stat9,,Stat10,,Wind1,,Wind1,
time,status,PA1M_AVG,status,PR1M_SUM,status,RH1M_AVG,status,SR1M_AVG,status,TA1M_AVG,status,W1dAve1m,status,W1sAve1m,
2004-06-10, 00:00:01,VALID,917.905,VALID,0,VALID,97.0578,VALID,-0.0849042,VALID,19.3068,VALID,131,VALID,1.1957,
2004-06-10, 00:01:01,VALID,917.881,VALID,0,VALID,96.8848,VALID,-0.101885,VALID,19.2871,VALID,125,VALID,1.51855,
2004-06-10, 00:02:01,VALID,917.89,VALID,0,VALID,96.7755,VALID,-0.0849042,VALID,19.2745,VALID,127,VALID,1.34199,
2004-06-10, 00:03:01,VALID,917.881,VALID,0,VALID,96.7271,VALID,-0.101885,VALID,19.2683,VALID,138,VALID,1.4377,
2004-06-10, 00:04:00,VALID,917.883,VALID,0,VALID,96.647,VALID,-0.101885,VALID,19.2648,VALID,128,VALID,1.54925,
2004-06-10, 00:05:00,VALID,917.881,VALID,0,VALID,96.4817,VALID,-0.0339617,VALID,19.2834,VALID,123,VALID,1.29345,
2004-06-10, 00:06:01,VALID,917.882,VALID,0,VALID,96.3431,VALID,0.0339617,VALID,19.3053,VALID,128,VALID,1.36788,
2004-06-10, 00:07:01,VALID,917.887,VALID,0,VALID,96.249,VALID,0,VALID,19.3118,VALID,120,VALID,1.16425,
2004-06-10, 00:08:01,VALID,917.88,VALID,0,VALID,96.263,VALID,0,VALID,19.3187,VALID,111,VALID,1.28613,
2004-06-10, 00:09:00,VALID,917.878,VALID,0,VALID,96.3368,VALID,0.0169808,VALID,19.3115,VALID,111,VALID,1.0625,
2004-06-10, 00:10:01,VALID,917.865,VALID,0,VALID,96.4817,VALID,0,VALID,19.3187,VALID,109,VALID,0.910065,
2004-06-10, 00:11:01,VALID,917.85,VALID,0,VALID,96.764,VALID,0.0169808,VALID,19.3122,VALID,107,VALID,1.00879,
2004-06-10, 00:12:00,VALID,917.842,VALID,0,VALID,96.9688,VALID,0.0339617,VALID,19.2889,VALID,118,VALID,1.14268,
2004-06-10, 00:13:00,VALID,917.826,VALID,0,VALID,97.1722,VALID,0,VALID,19.2859,VALID,128,VALID,1.27253,
2004-06-10, 00:14:01,VALID,917.815,VALID,0,VALID,97.466,VALID,0,VALID,19.3055,VALID,132,VALID,1.28373,
2004-06-10, 00:15:01,VALID,917.796,VALID,0,VALID,97.733,VALID,0.0339617,VALID,19.3311,VALID,138,VALID,1.50591,
2004-06-10, 00:16:00,VALID,917.794,VALID,0,VALID,97.7927,VALID,0,VALID,19.344,VALID,138,VALID,1.17225,
2004-06-10, 00:17:01,VALID,917.783,VALID,0,VALID,97.644,VALID,0.0509425,VALID,19.3403,VALID,131,VALID,1.39139,
2004-06-10, 00:18:00,VALID,917.774,VALID,0,VALID,97.6325,VALID,0.0169808,VALID,19.3535,VALID,131,VALID,1.12227,
2004-06-10, 00:19:01,VALID,917.765,VALID,0,VALID,97.6351,VALID,0.0169808,VALID,19.3535,VALID,124,VALID,1.06037,
2004-06-10, 00:20:01,VALID,917.745,VALID,0,VALID,97.5842,VALID,0,VALID,19.3607,VALID,109,VALID,0.819169,
2004-06-10, 00:21:01,VALID,917.75,VALID,0,VALID,97.5333,VALID,0,VALID,19.357,VALID,104,VALID,0.824124,
2004-06-10, 00:22:00,VALID,917.738,VALID,0,VALID,97.5524,VALID,0.0679233,VALID,19.3669,VALID,107,VALID,0.930246,
2004-06-10, 00:23:01,VALID,917.74,VALID,0,VALID,97.5473,VALID,0.0339617,VALID,19.3897,VALID,96,VALID,1.04929,
2004-06-10, 00:24:01,VALID,917.732,VALID,0,VALID,97.3718,VALID,0,VALID,19.396,VALID,117,VALID,0.933933,
2004-06-10, 00:25:01,VALID,917.716,VALID,0,VALID,97.2676,VALID,0.0169808,VALID,19.3985,VALID,100,VALID,0.823219,
2004-06-10, 00:26:01,VALID,917.698,VALID,0,VALID,97.2777,VALID,0.0339617,VALID,19.4089,VALID,107,VALID,0.713224,
2004-06-10, 00:27:00,VALID,917.691,VALID,0,VALID,97.2472,VALID,0.0339617,VALID,19.4119,VALID,103,VALID,0.516369,
2004-06-10, 00:28:00,VALID,917.681,VALID,0,VALID,97.2956,VALID,0.0509425,VALID,19.3957,VALID,96,VALID,0.63157,
2004-06-10, 00:29:01,VALID,917.687,VALID,0,VALID,97.3312,VALID,0.0169808,VALID,19.3855,VALID,88,VALID,0.562678,
2004-06-10, 00:30:01,VALID,917.693,VALID,0,VALID,97.4392,VALID,0.0509425,VALID,19.4024,VALID,67,VALID,0.680233,
2004-06-10, 00:31:01,VALID,917.695,VALID,0,VALID,97.5982,VALID,0,VALID,19.4119,VALID,58,VALID,0.546693,
2004-06-10, 00:32:01,VALID,917.694,VALID,0,VALID,97.5995,VALID,0.101885,VALID,19.431,VALID,82,VALID,0.657227,
2004-06-10, 00:33:01,VALID,917.693,VALID,0,VALID,97.6847,VALID,0,VALID,19.4603,VALID,98,VALID,0.659268,
2004-06-10, 00:34:01,VALID,917.689,VALID,0,VALID,97.6249,VALID,0.0339617,VALID,19.4598,VALID,98,VALID,0.507999,
2004-06-10, 00:35:01,VALID,917.682,VALID,0,VALID,97.6122,VALID,0.0339617,VALID,19.4829,VALID,89,VALID,0.327035,
2004-06-10, 00:36:01,VALID,917.671,VALID,0,VALID,97.6516,VALID,0.0169808,VALID,19.4926,VALID,94,VALID,0.536719,
2004-06-10, 00:37:01,VALID,917.659,VALID,0,VALID,97.6643,VALID,0.0509425,VALID,19.5095,VALID,95,VALID,0.415931,
2004-06-10, 00:38:01,VALID,917.656,VALID,0,VALID,97.5944,VALID,0.0339617,VALID,19.502,VALID,97,VALID,0.492374,
2004-06-10, 00:39:01,VALID,917.648,VALID,0,VALID,97.588,VALID,0.0169808,VALID,19.5025,VALID,99,VALID,0.438058,
2004-06-10, 00:40:01,VALID,917.637,VALID,0,VALID,97.5969,VALID,0.0509425,VALID,19.5087,VALID,101,VALID,0.393111,
2004-06-10, 00:41:01,VALID,917.621,VALID,0,VALID,97.5728,VALID,0.0679233,VALID,19.4993,VALID,101,VALID,0.271007,
2004-06-10, 00:42:01,VALID,917.603,VALID,0,VALID,97.6096,VALID,0.0339617,VALID,19.4958,VALID,110,VALID,0.448331,
2004-06-10, 00:43:01,VALID,917.58,VALID,0,VALID,97.6351,VALID,0,VALID,19.4859,VALID,117,VALID,0.481585,
2004-06-10, 00:44:01,VALID,917.558,VALID,0,VALID,97.5613,VALID,0.0679233,VALID,19.4824,VALID,117,VALID,0.389915,
2004-06-10, 00:45:01,VALID,917.539,VALID,0,VALID,97.5817,VALID,0.0169808,VALID,19.4665,VALID,117,VALID,0.221912,
2004-06-10, 00:46:01,VALID,917.508,VALID,0,VALID,97.5944,VALID,0.0169808,VALID,19.4568,VALID,117,VALID,0.310785,
2004-06-10, 00:47:01,VALID,917.474,VALID,0,VALID,97.6249,VALID,0.0339617,VALID,19.4404,VALID,117,VALID,0.371951,
2004-06-10, 00:48:01,VALID,917.458,VALID,0,VALID,97.6796,VALID,0.0339617,VALID,19.4379,VALID,117,VALID,0.293818,
2004-06-10, 00:49:01,VALID,917.43,VALID,0,VALID,97.7482,VALID,0.0509425,VALID,19.4215,VALID,117,VALID,0.37128,
2004-06-10, 00:50:01,VALID,917.411,VALID,0,VALID,97.7597,VALID,0.0169808,VALID,19.393,VALID,117,VALID,0.499238,
2004-06-10, 00:51:01,VALID,917.398,VALID,0,VALID,97.836,VALID,-0.0679233,VALID,19.3746,VALID,120,VALID,0.549414,
2004-06-10, 00:52:01,VALID,917.408,VALID,0,VALID,97.8894,VALID,-0.101885,VALID,19.3584,VALID,121,VALID,0.786577,
2004-06-10, 00:53:01,VALID,917.411,VALID,0,VALID,97.9008,VALID,-0.101885,VALID,19.3229,VALID,120,VALID,0.620561,
2004-06-10, 00:54:01,VALID,917.416,VALID,0,VALID,97.9568,VALID,-0.0849042,VALID,19.3038,VALID,105,VALID,0.470982,
2004-06-10, 00:55:01,VALID,917.413,VALID,0,VALID,98.07,VALID,-0.0679233,VALID,19.2814,VALID,89,VALID,0.256696,
2004-06-10, 00:56:01,VALID,917.423,VALID,0,VALID,98.1793,VALID,-0.101885,VALID,19.2519,VALID,89,VALID,0.458079,
2004-06-10, 00:57:01,VALID,917.433,VALID,0,VALID,98.3014,VALID,-0.0679233,VALID,19.2489,VALID,91,VALID,0.391158,
2004-06-10, 00:58:00,VALID,917.422,VALID,0,VALID,98.3917,VALID,-0.118866,VALID,19.2556,VALID,92,VALID,0.338224,
2004-06-10, 00:59:00,VALID,917.418,VALID,0,VALID,98.4413,VALID,-0.101885,VALID,19.2489,VALID,92,VALID,0.309338,
2004-06-10, 01:00:00,VALID,917.416,VALID,0,VALID,98.4858,VALID,-0.0679233,VALID,19.2486,VALID,91,VALID,0.308222,
2004-06-10, 01:01:00,VALID,917.398,VALID,0,VALID,98.5519,VALID,-0.101885,VALID,19.2519,VALID,90,VALID,0.434411,
2004-06-10, 01:02:00,VALID,917.393,VALID,0,VALID,98.5608,VALID,-0.101885,VALID,19.2486,VALID,90,VALID,0.237602,
2004-06-10, 01:03:00,VALID,917.396,VALID,0,VALID,98.5468,VALID,-0.101885,VALID,19.2457,VALID,90,VALID,0.241097,
2004-06-10, 01:04:00,VALID,917.385,VALID,0,VALID,98.5951,VALID,-0.0849042,VALID,19.2526,VALID,90,VALID,0.293636,
2004-06-10, 01:05:00,VALID,917.387,VALID,0,VALID,98.5176,VALID,-0.0509425,VALID,19.2387,VALID,90,VALID,0.295508,
2004-06-10, 01:06:00,VALID,917.376,VALID,0,VALID,98.5926,VALID,0,VALID,19.2345,VALID,90,VALID,0.411458,
2004-06-10, 01:07:00,VALID,917.358,VALID,0,VALID,98.6193,VALID,0.0339617,VALID,19.2283,VALID,83,VALID,0.524528,
2004-06-10, 01:08:00,VALID,917.342,VALID,0,VALID,98.6562,VALID,0.0169808,VALID,19.2184,VALID,71,VALID,0.555596,
2004-06-10, 01:09:00,VALID,917.328,VALID,0,VALID,98.7045,VALID,0,VALID,19.2248,VALID,76,VALID,0.492932,
2004-06-10, 01:10:00,VALID,917.309,VALID,0,VALID,98.721,VALID,0.0169808,VALID,19.2281,VALID,63,VALID,0.505382,
2004-06-10, 01:11:00,VALID,917.293,VALID,0,VALID,98.7337,VALID,0.0169808,VALID,19.2387,VALID,63,VALID,0.60061,
2004-06-10, 01:12:00,VALID,917.268,VALID,0,VALID,98.6803,VALID,0,VALID,19.2221,VALID,64,VALID,0.618641,
2004-06-10, 01:13:00,VALID,917.253,VALID,0,VALID,98.7477,VALID,0.0169808,VALID,19.1958,VALID,71,VALID,0.717262,
2004-06-10, 01:14:00,VALID,917.251,VALID,0,VALID,98.674,VALID,0.0339617,VALID,19.1734,VALID,71,VALID,0.763445,
2004-06-10, 01:15:00,VALID,917.23,VALID,0,VALID,98.7668,VALID,0.0339617,VALID,19.1411,VALID,72,VALID,0.850034,
2004-06-10, 01:16:00,VALID,917.237,VALID,0,VALID,98.9079,VALID,0,VALID,19.1379,VALID,72,VALID,0.789993,
2004-06-10, 01:17:00,VALID,917.214,VALID,0,VALID,98.9639,VALID,-0.0169808,VALID,19.1252,VALID,72,VALID,0.75,
2004-06-10, 01:18:00,VALID,917.216,VALID,0,VALID,98.997,VALID,0,VALID,19.1188,VALID,73,VALID,0.583734,
2004-06-10, 01:19:00,VALID,917.206,VALID,0,VALID,98.8762,VALID,0.0339617,VALID,19.0927,VALID,73,VALID,0.510045,
2004-06-10, 01:20:00,VALID,917.204,VALID,0,VALID,98.707,VALID,0.0679233,VALID,19.0505,VALID,73,VALID,0.319767,
2004-06-10, 01:21:00,VALID,917.198,VALID,0,VALID,98.6524,VALID,0.0339617,VALID,19.0018,VALID,73,VALID,0.300509,
2004-06-10, 01:22:00,VALID,917.181,VALID,0,VALID,98.5939,VALID,0.0169808,VALID,18.9633,VALID,73,VALID,0.20149,
2004-06-10, 01:23:00,VALID,917.181,VALID,0,VALID,98.6358,VALID,0,VALID,18.9308,VALID,80,VALID,0.12936,
2004-06-10, 01:24:00,VALID,917.173,VALID,0,VALID,99.0059,VALID,0,VALID,18.938,VALID,119,VALID,0.499112,
2004-06-10, 01:25:00,VALID,917.169,VALID,0,VALID,99.2538,VALID,0.0169808,VALID,18.9439,VALID,116,VALID,0.274368,
2004-06-10, 01:26:00,VALID,917.154,VALID,0,VALID,99.4268,VALID,0,VALID,18.9469,VALID,116,VALID,0.356889,
2004-06-10, 01:27:00,VALID,917.15,VALID,0,VALID,99.6646,VALID,0,VALID,18.9695,VALID,114,VALID,0.48383,
2004-06-10, 01:28:00,VALID,917.144,VALID,0,VALID,99.7663,VALID,0.0169808,VALID,18.9986,VALID,73,VALID,0.50109,
2004-06-10, 01:29:00,VALID,917.145,VALID,0,VALID,99.587,VALID,0,VALID,18.9797,VALID,47,VALID,0.65625,
2004-06-10, 01:30:00,VALID,917.134,VALID,0,VALID,99.6022,VALID,0,VALID,18.9531,VALID,61,VALID,0.907393,
2004-06-10, 01:31:00,VALID,917.119,VALID,0,VALID,99.7561,VALID,0.0169808,VALID,18.9631,VALID,66,VALID,0.892401,
2004-06-10, 01:32:00,VALID,917.098,VALID,0,VALID,99.8032,VALID,0.0169808,VALID,18.9626,VALID,76,VALID,0.90918,
2004-06-10, 01:33:00,VALID,917.094,VALID,0,VALID,99.9443,VALID,0.0169808,VALID,18.9956,VALID,77,VALID,0.838601,
2004-06-10, 01:34:00,VALID,917.102,VALID,0,VALID,99.9087,VALID,0.0339617,VALID,18.9986,VALID,77,VALID,0.533558,
2004-06-10, 01:35:00,VALID,917.1,VALID,0,VALID,99.9087,VALID,0.0339617,VALID,18.9787,VALID,90,VALID,0.551781,
2004-06-10, 01:36:00,VALID,917.115,VALID,0,VALID,99.9669,VALID,0,VALID,19.0087,VALID,85,VALID,0.549665,
2004-06-10, 01:37:00,VALID,917.116,VALID,0,VALID,99.8744,VALID,0.0169808,VALID,18.9794,VALID,83,VALID,0.615473,
2004-06-10, 01:38:00,VALID,917.113,VALID,0,VALID,99.9835,VALID,0,VALID,18.9891,VALID,85,VALID,0.731179,
2004-06-10, 01:39:00,VALID,917.109,VALID,0,VALID,99.9842,VALID,0,VALID,18.9896,VALID,87,VALID,0.673277,
2004-06-10, 01:40:00,VALID,917.097,VALID,0,VALID,99.9766,VALID,0,VALID,18.9794,VALID,80,VALID,0.775618,
2004-06-10, 01:41:00,VALID,917.072,VALID,0,VALID,99.9746,VALID,0.0169808,VALID,18.9797,VALID,79,VALID,0.74929,
2004-06-10, 01:42:00,VALID,917.051,VALID,0,VALID,99.9776,VALID,0.0339617,VALID,18.973,VALID,80,VALID,0.803013,
2004-06-10, 01:43:00,VALID,917.038,VALID,0,VALID,99.9326,VALID,0,VALID,18.9474,VALID,84,VALID,0.867543,
2004-06-10, 01:44:00,VALID,917.026,VALID,0,VALID,100,VALID,0,VALID,18.9504,VALID,102,VALID,1.07385,
2004-06-10, 01:45:00,VALID,917.008,VALID,0,VALID,100,VALID,0.0339617,VALID,18.9861,VALID,95,VALID,0.778343,
2004-06-10, 01:46:00,VALID,916.987,VALID,0,VALID,100,VALID,0.0169808,VALID,19.0249,VALID,91,VALID,0.90968,
2004-06-10, 01:47:00,VALID,916.977,VALID,0,VALID,100,VALID,0.0509425,VALID,19.041,VALID,100,VALID,0.96548,
2004-06-10, 01:48:00,VALID,916.983,VALID,0,VALID,100,VALID,0.0169808,VALID,19.0507,VALID,102,VALID,1.0467,
2004-06-10, 01:49:00,VALID,916.986,VALID,0,VALID,99.9641,VALID,0,VALID,19.0703,VALID,85,VALID,0.884084,
2004-06-10, 01:50:00,VALID,916.99,VALID,0,VALID,99.9125,VALID,0,VALID,19.0669,VALID,76,VALID,0.773056,
2004-06-10, 01:51:00,VALID,916.989,VALID,0,VALID,99.7892,VALID,0.0169808,VALID,19.0736,VALID,77,VALID,0.6894,
2004-06-10, 01:52:00,VALID,916.993,VALID,0,VALID,99.6722,VALID,0,VALID,19.0539,VALID,77,VALID,0.713914,
2004-06-10, 01:53:00,VALID,916.972,VALID,0,VALID,99.6455,VALID,0,VALID,19.0606,VALID,88,VALID,0.791788,
2004-06-10, 01:54:00,VALID,916.954,VALID,0,VALID,99.6684,VALID,0.0339617,VALID,19.0569,VALID,94,VALID,0.914435,
2004-06-10, 01:55:00,VALID,916.94,VALID,0,VALID,99.6468,VALID,0.0339617,VALID,19.083,VALID,90,VALID,0.892829,
2004-06-10, 01:56:00,VALID,916.927,VALID,0,VALID,99.5323,VALID,0.0339617,VALID,19.0798,VALID,85,VALID,0.672256,
2004-06-10, 01:57:00,VALID,916.905,VALID,0,VALID,99.5081,VALID,0,VALID,19.0703,VALID,95,VALID,0.671113,
2004-06-10, 01:58:00,VALID,916.879,VALID,0,VALID,99.3683,VALID,0.0169808,VALID,19.0542,VALID,110,VALID,0.763849,
2004-06-10, 01:59:00,VALID,916.864,VALID,0,VALID,99.264,VALID,0,VALID,19.0117,VALID,121,VALID,0.760938,
2004-06-10, 02:00:00,VALID,916.853,VALID,0,VALID,99.3708,VALID,0,VALID,18.9829,VALID,128,VALID,1.12664,
2004-06-10, 02:01:00,VALID,916.844,VALID,0,VALID,99.6035,VALID,0.0169808,VALID,18.9792,VALID,129,VALID,1.35138,
2004-06-10, 02:02:00,VALID,916.821,VALID,0,VALID,99.4598,VALID,0,VALID,18.9802,VALID,120,VALID,1.05913,
2004-06-10, 02:03:00,VALID,916.816,VALID,0,VALID,99.3301,VALID,0.0169808,VALID,18.9476,VALID,124,VALID,1.04033,
2004-06-10, 02:04:00,VALID,916.822,VALID,0,VALID,99.2347,VALID,0.0169808,VALID,18.9278,VALID,122,VALID,0.841619,
2004-06-10, 02:05:00,VALID,916.832,VALID,0,VALID,99.1381,VALID,0,VALID,18.9082,VALID,119,VALID,1.08249,
2004-06-10, 02:06:00,VALID,916.832,VALID,0,VALID,99.1368,VALID,0,VALID,18.9087,VALID,116,VALID,0.905887,
2004-06-10, 02:07:00,VALID,916.826,VALID,0,VALID,99.1928,VALID,0,VALID,18.9084,VALID,120,VALID,0.986506,
2004-06-10, 02:08:00,VALID,916.819,VALID,0,VALID,99.3441,VALID,0,VALID,18.9114,VALID,113,VALID,1.07958,
2004-06-10, 02:09:00,VALID,916.816,VALID,0,VALID,99.4458,VALID,0.0339617,VALID,18.9179,VALID,97,VALID,1.03354,
2004-06-10, 02:10:00,VALID,916.806,VALID,0,VALID,99.4585,VALID,-0.0169808,VALID,18.9283,VALID,90,VALID,0.879246,
2004-06-10, 02:11:00,VALID,916.797,VALID,0,VALID,99.3746,VALID,0,VALID,18.9087,VALID,83,VALID,0.774771,
2004-06-10, 02:12:00,VALID,916.798,VALID,0,VALID,99.2818,VALID,0.0169808,VALID,18.9151,VALID,87,VALID,1.12805,
2004-06-10, 02:13:00,VALID,916.801,VALID,0,VALID,99.1559,VALID,0.0169808,VALID,18.9276,VALID,96,VALID,0.973366,
2004-06-10, 02:14:00,VALID,916.798,VALID,0,VALID,99.0529,VALID,0.0339617,VALID,18.9635,VALID,91,VALID,0.969295,
2004-06-10, 02:15:00,VALID,916.803,VALID,0,VALID,98.8151,VALID,0.0339617,VALID,18.9794,VALID,93,VALID,0.933594,
2004-06-10, 02:16:00,VALID,916.794,VALID,0,VALID,98.7554,VALID,0,VALID,18.9924,VALID,94,VALID,0.863376,
2004-06-10, 02:17:00,VALID,916.79,VALID,0,VALID,98.6193,VALID,0.0169808,VALID,19.0025,VALID,105,VALID,0.773074,
2004-06-10, 02:18:00,VALID,916.772,VALID,0,VALID,98.482,VALID,0.0679233,VALID,18.9924,VALID,100,VALID,0.816584,
2004-06-10, 02:19:00,VALID,916.767,VALID,0,VALID,98.3421,VALID,0.0169808,VALID,18.9693,VALID,112,VALID,0.793924,
2004-06-10, 02:20:00,VALID,916.764,VALID,0,VALID,98.2836,VALID,0,VALID,18.9412,VALID,104,VALID,0.757813,
2004-06-10, 02:21:00,VALID,916.775,VALID,0,VALID,98.2938,VALID,-0.0339617,VALID,18.9221,VALID,96,VALID,0.677455,
2004-06-10, 02:22:00,VALID,916.776,VALID,0,VALID,98.3052,VALID,0,VALID,18.9027,VALID,106,VALID,0.722098,
2004-06-10, 02:23:00,VALID,916.759,VALID,0,VALID,98.379,VALID,0,VALID,18.8833,VALID,108,VALID,0.760975,
2004-06-10, 02:24:00,VALID,916.766,VALID,0,VALID,98.4591,VALID,0,VALID,18.8806,VALID,96,VALID,0.808594,
2004-06-10, 02:25:00,VALID,916.772,VALID,0,VALID,98.4108,VALID,0,VALID,18.8835,VALID,94,VALID,0.726563,
2004-06-10, 02:26:00,VALID,916.764,VALID,0,VALID,98.3561,VALID,-0.0169808,VALID,18.887,VALID,100,VALID,0.856585,
2004-06-10, 02:27:00,VALID,916.762,VALID,0,VALID,98.3027,VALID,-0.0509425,VALID,18.8835,VALID,100,VALID,0.854288,
2004-06-10, 02:28:00,VALID,916.754,VALID,0,VALID,98.2378,VALID,-0.0339617,VALID,18.8995,VALID,113,VALID,1.06285,
2004-06-10, 02:29:00,VALID,916.746,VALID,0,VALID,98.1183,VALID,0,VALID,18.9191,VALID,119,VALID,1.08203,
2004-06-10, 02:30:00,VALID,916.751,VALID,0,VALID,97.9987,VALID,-0.0169808,VALID,18.9156,VALID,120,VALID,0.962209,
2004-06-10, 02:31:00,VALID,916.73,VALID,0,VALID,97.8512,VALID,0.0169808,VALID,18.9158,VALID,121,VALID,0.954928,
2004-06-10, 02:32:00,VALID,916.714,VALID,0,VALID,97.7775,VALID,0,VALID,18.9027,VALID,121,VALID,0.992932,
2004-06-10, 02:33:00,VALID,916.713,VALID,0,VALID,97.63,VALID,0,VALID,18.8962,VALID,120,VALID,0.995617,
2004-06-10, 02:34:00,VALID,916.701,VALID,0,VALID,97.3579,VALID,0,VALID,18.89,VALID,118,VALID,0.943229,
2004-06-10, 02:35:00,VALID,916.687,VALID,0,VALID,97.1035,VALID,-0.0339617,VALID,18.8999,VALID,115,VALID,0.888765,
2004-06-10, 02:36:00,VALID,916.672,VALID,0,VALID,96.806,VALID,0,VALID,18.9128,VALID,112,VALID,0.643466,
2004-06-10, 02:37:00,VALID,916.656,VALID,0,VALID,96.6445,VALID,0,VALID,18.9191,VALID,111,VALID,0.565225,
2004-06-10, 02:38:00,VALID,916.641,VALID,0,VALID,96.5733,VALID,0,VALID,18.9191,VALID,111,VALID,0.493331,
2004-06-10, 02:39:00,VALID,916.622,VALID,0,VALID,96.455,VALID,0,VALID,18.9027,VALID,111,VALID,0.361285,
2004-06-10, 02:40:00,VALID,916.604,VALID,0,VALID,96.4512,VALID,0,VALID,18.8632,VALID,111,VALID,0.36447,
2004-06-10, 02:41:00,VALID,916.572,VALID,0,VALID,96.525,VALID,0.0169808,VALID,18.8252,VALID,111,VALID,0.478906,
2004-06-10, 02:42:00,VALID,916.561,VALID,0,VALID,96.6954,VALID,0,VALID,18.7837,VALID,99,VALID,0.502096,
2004-06-10, 02:43:00,VALID,916.548,VALID,0,VALID,96.8772,VALID,-0.0169808,VALID,18.7087,VALID,89,VALID,0.495916,
2004-06-10, 02:44:00,VALID,916.552,VALID,0,VALID,97.1175,VALID,0,VALID,18.6412,VALID,86,VALID,0.356771,
2004-06-10, 02:45:00,VALID,916.532,VALID,0,VALID,97.4901,VALID,0.0169808,VALID,18.5962,VALID,87,VALID,0.395419,
2004-06-10, 02:46:00,VALID,916.518,VALID,0,VALID,97.9237,VALID,-0.0169808,VALID,18.5833,VALID,107,VALID,0.798549,
2004-06-10, 02:47:00,VALID,916.504,VALID,0,VALID,97.9962,VALID,-0.0169808,VALID,18.6153,VALID,100,VALID,0.790153,
2004-06-10, 02:48:00,VALID,916.495,VALID,0,VALID,97.7165,VALID,-0.0169808,VALID,18.628,VALID,97,VALID,0.503196,
2004-06-10, 02:49:00,VALID,916.477,VALID,0,VALID,97.2205,VALID,-0.0169808,VALID,18.5932,VALID,68,VALID,0.607813,
2004-06-10, 02:50:00,VALID,916.476,VALID,0,VALID,97.1188,VALID,-0.0169808,VALID,18.5224,VALID,53,VALID,0.730283,
2004-06-10, 02:51:00,VALID,916.452,VALID,0,VALID,97.5461,VALID,-0.0339617,VALID,18.4671,VALID,56,VALID,0.82134,
2004-06-10, 02:52:00,VALID,916.442,VALID,0,VALID,97.9733,VALID,0,VALID,18.4835,VALID,62,VALID,0.825581,
2004-06-10, 02:53:00,VALID,916.42,VALID,0,VALID,97.8258,VALID,0,VALID,18.4316,VALID,53,VALID,0.874238,
2004-06-10, 02:54:00,VALID,916.409,VALID,0,VALID,98.0356,VALID,0,VALID,18.3931,VALID,57,VALID,0.800872,
2004-06-10, 02:55:00,VALID,916.402,VALID,0,VALID,98.6562,VALID,-0.0169808,VALID,18.4256,VALID,70,VALID,0.78234,
2004-06-10, 02:56:00,VALID,916.383,VALID,0,VALID,98.5913,VALID,-0.0169808,VALID,18.4383,VALID,56,VALID,0.66654,
2004-06-10, 02:57:00,VALID,916.375,VALID,0,VALID,98.1196,VALID,-0.0169808,VALID,18.3675,VALID,54,VALID,0.736979,
2004-06-10, 02:58:00,VALID,916.376,VALID,0,VALID,98.1933,VALID,0,VALID,18.2898,VALID,49,VALID,0.817708,
2004-06-10, 02:59:00,VALID,916.345,VALID,0,VALID,98.4565,VALID,0,VALID,18.2543,VALID,49,VALID,0.793423,
2004-06-10, 03:00:00,VALID,916.359,VALID,0,VALID,98.6269,VALID,0,VALID,18.219,VALID,49,VALID,0.84375,
2004-06-10, 03:01:00,VALID,916.366,VALID,0,VALID,98.6091,VALID,-0.0339617,VALID,18.1772,VALID,49,VALID,0.731179,
2004-06-10, 03:02:00,VALID,916.363,VALID,0,VALID,98.6218,VALID,0,VALID,18.1284,VALID,49,VALID,0.87168,
2004-06-10, 03:03:00,VALID,916.359,VALID,0,VALID,98.8075,VALID,-0.0339617,VALID,18.0931,VALID,49,VALID,0.702398,
2004-06-10, 03:04:00,VALID,916.361,VALID,0,VALID,99.0275,VALID,0,VALID,18.0832,VALID,49,VALID,0.738467,
2004-06-10, 03:05:00,VALID,916.355,VALID,0,VALID,99.3377,VALID,0,VALID,18.1025,VALID,49,VALID,0.850074,
2004-06-10, 03:06:00,VALID,916.334,VALID,0,VALID,99.8805,VALID,0,VALID,18.1703,VALID,56,VALID,0.891897,
2004-06-10, 03:07:00,VALID,916.342,VALID,0,VALID,99.8718,VALID,0,VALID,18.222,VALID,60,VALID,0.831731,
2004-06-10, 03:08:00,VALID,916.35,VALID,0,VALID,99.4942,VALID,0,VALID,18.1906,VALID,60,VALID,0.726381,
2004-06-10, 03:09:00,VALID,916.346,VALID,0,VALID,99.2373,VALID,0,VALID,18.1224,VALID,60,VALID,0.697731,
2004-06-10, 03:10:00,VALID,916.349,VALID,0,VALID,99.47,VALID,-0.0169808,VALID,18.1157,VALID,61,VALID,0.753405,
2004-06-10, 03:11:00,VALID,916.341,VALID,0,VALID,99.5565,VALID,0,VALID,18.1251,VALID,61,VALID,0.719778,
2004-06-10, 03:12:00,VALID,916.334,VALID,0,VALID,99.7688,VALID,0,VALID,18.1348,VALID,65,VALID,0.778773,
2004-06-10, 03:13:00,VALID,916.324,VALID,0,VALID,99.9926,VALID,0,VALID,18.1964,VALID,70,VALID,0.822917,
2004-06-10, 03:14:00,VALID,916.303,VALID,0,VALID,100,VALID,-0.0169808,VALID,18.2639,VALID,72,VALID,0.820871,
2004-06-10, 03:15:00,VALID,916.299,VALID,0,VALID,100,VALID,0,VALID,18.3255,VALID,72,VALID,0.654726,
2004-06-10, 03:16:00,VALID,916.28,VALID,0,VALID,99.9674,VALID,0,VALID,18.3322,VALID,72,VALID,0.483103,
2004-06-10, 03:17:00,VALID,916.265,VALID,0,VALID,99.9853,VALID,0,VALID,18.3285,VALID,101,VALID,0.65263,
2004-06-10, 03:18:00,VALID,916.249,VALID,0,VALID,99.999,VALID,0,VALID,18.3642,VALID,103,VALID,0.774368,
2004-06-10, 03:19:00,VALID,916.237,VALID,0,VALID,99.9952,VALID,0,VALID,18.3993,VALID,106,VALID,0.919212,
2004-06-10, 03:20:00,VALID,916.229,VALID,0,VALID,99.8667,VALID,0,VALID,18.4258,VALID,111,VALID,0.871366,
2004-06-10, 03:21:00,VALID,916.229,VALID,0,VALID,99.8884,VALID,0,VALID,18.4353,VALID,112,VALID,0.837984,
2004-06-10, 03:22:00,VALID,916.25,VALID,0,VALID,99.8706,VALID,-0.0169808,VALID,18.442,VALID,113,VALID,0.863567,
2004-06-10, 03:23:00,VALID,916.25,VALID,0,VALID,99.7358,VALID,0,VALID,18.4486,VALID,113,VALID,0.576308,
2004-06-10, 03:24:00,VALID,916.262,VALID,0,VALID,99.6798,VALID,0,VALID,18.4164,VALID,121,VALID,0.689317,
2004-06-10, 03:25:00,VALID,916.257,VALID,0,VALID,99.7765,VALID,-0.0169808,VALID,18.4122,VALID,127,VALID,0.781795,
2004-06-10, 03:26:00,VALID,916.253,VALID,0,VALID,99.7701,VALID,-0.0169808,VALID,18.4028,VALID,127,VALID,0.717226,
2004-06-10, 03:27:00,VALID,916.265,VALID,0,VALID,99.7536,VALID,0,VALID,18.4097,VALID,127,VALID,0.841619,
2004-06-10, 03:28:00,VALID,916.254,VALID,0,VALID,99.7917,VALID,-0.0509425,VALID,18.4196,VALID,128,VALID,0.768111,
2004-06-10, 03:29:00,VALID,916.251,VALID,0,VALID,99.7637,VALID,0,VALID,18.4129,VALID,128,VALID,0.651736,
2004-06-10, 03:30:00,VALID,916.258,VALID,0,VALID,99.6175,VALID,-0.0169808,VALID,18.3905,VALID,125,VALID,0.387398,
2004-06-10, 03:31:00,VALID,916.258,VALID,0,VALID,99.311,VALID,-0.0339617,VALID,18.3126,VALID,123,VALID,0.27038,
2004-06-10, 03:32:00,VALID,916.272,VALID,0,VALID,99.0071,VALID,-0.0169808,VALID,18.2353,VALID,119,VALID,0.404251,
2004-06-10, 03:33:00,VALID,916.27,VALID,0,VALID,98.8418,VALID,0,VALID,18.135,VALID,83,VALID,0.481836,
2004-06-10, 03:34:00,VALID,916.281,VALID,0,VALID,98.838,VALID,0,VALID,18.0802,VALID,79,VALID,0.464744,
2004-06-10, 03:35:00,VALID,916.266,VALID,0,VALID,99.0313,VALID,-0.0339617,VALID,18.0516,VALID,79,VALID,0.489169,
2004-06-10, 03:36:00,VALID,916.268,VALID,0,VALID,99.2818,VALID,-0.0339617,VALID,18.0742,VALID,79,VALID,0.462003,